| time (UTC) | temp F | wind direction | speed knots | gust knots | rain 1hr in | rain 24hr in | rain mn in | humidity % | barometer mb |
| 20260507161735 | 81 | 222 | 2.6 | 6.1 | 0.00 | 0.00 | 0.00 | 22 | 1012.2 |
| 20260507161235 | 81 | 276 | 1.7 | 5.2 | 0.00 | 0.00 | 0.00 | 22 | 1012.5 |
| 20260507160735 | 81 | 167 | 0.0 | 2.6 | 0.00 | 0.00 | 0.00 | 23 | 1012.5 |
| 20260507160235 | 80 | 254 | 0.9 | 3.5 | 0.00 | 0.00 | 0.00 | 23 | 1012.5 |
| 20260507155735 | 79 | 227 | 1.7 | 3.5 | 0.00 | 0.00 | 0.00 | 23 | 1012.5 |
| 20260507155234 | 79 | 151 | 0.9 | 2.6 | 0.00 | 0.00 | 0.00 | 24 | 1012.5 |
| 20260507154735 | 79 | 81 | 1.7 | 4.3 | 0.00 | 0.00 | 0.00 | 25 | 1012.5 |
| 20260507154235 | 78 | 207 | 0.0 | 2.6 | 0.00 | 0.00 | 0.00 | 25 | 1012.5 |
| 20260507153734 | 78 | 66 | 0.9 | 3.5 | 0.00 | 0.00 | 0.00 | 25 | 1012.5 |
| 20260507153235 | 77 | 166 | 0.9 | 3.5 | 0.00 | 0.00 | 0.00 | 25 | 1012.5 |
| 20260507152737 | 77 | 170 | 0.9 | 3.5 | 0.00 | 0.00 | 0.00 | 25 | 1012.5 |
| 20260507152235 | 77 | 95 | 0.9 | 2.6 | 0.00 | 0.00 | 0.00 | 26 | 1012.5 |
| 20260507151734 | 76 | 188 | 0.9 | 3.5 | 0.00 | 0.00 | 0.00 | 26 | 1012.5 |
| 20260507151235 | 75 | 140 | 0.9 | 3.5 | 0.00 | 0.00 | 0.00 | 27 | 1012.5 |
| 20260507150737 | 74 | 190 | 1.7 | 3.5 | 0.00 | 0.00 | 0.00 | 27 | 1012.5 |
| 20260507150235 | 74 | 234 | 1.7 | 2.6 | 0.00 | 0.00 | 0.00 | 28 | 1012.5 |
| 20260507145734 | 73 | 146 | 0.0 | 1.7 | 0.00 | 0.00 | 0.00 | 29 | 1012.5 |
| 20260507145235 | 73 | 218 | 0.9 | 3.5 | 0.00 | 0.00 | 0.00 | 30 | 1012.5 |
| 20260507144735 | 72 | 126 | 0.0 | 2.6 | 0.00 | 0.00 | 0.00 | 31 | 1012.5 |
| 20260507144235 | 71 | 191 | 0.9 | 2.6 | 0.00 | 0.00 | 0.00 | 31 | 1012.5 |
| 20260507143742 | 71 | 182 | 0.0 | 1.7 | 0.00 | 0.00 | 0.00 | 32 | 1012.5 |
| 20260507143234 | 70 | 178 | 0.0 | 2.6 | 0.00 | 0.00 | 0.00 | 33 | 1012.5 |
| 20260507142737 | 70 | 240 | 0.9 | 2.6 | 0.00 | 0.00 | 0.00 | 33 | 1012.5 |
| 20260507142235 | 69 | 151 | 0.9 | 2.6 | 0.00 | 0.00 | 0.00 | 33 | 1012.5 |
| 20260507141735 | 68 | 155 | 0.9 | 2.6 | 0.00 | 0.00 | 0.00 | 34 | 1012.5 |
| 20260507141234 | 67 | 199 | 0.9 | 2.6 | 0.00 | 0.00 | 0.00 | 34 | 1012.5 |
| 20260507140734 | 67 | 167 | 0.9 | 2.6 | 0.00 | 0.00 | 0.00 | 35 | 1012.5 |
| 20260507140236 | 67 | 197 | 0.0 | 2.6 | 0.00 | 0.00 | 0.00 | 37 | 1012.5 |
| 20260507135235 | 65 | 122 | 0.0 | 2.6 | 0.00 | 0.00 | 0.00 | 38 | 1012.2 |
| 20260507134735 | 65 | 142 | 0.0 | 0.0 | 0.00 | 0.00 | 0.00 | 39 | 1012.2 |
| 20260507134234 | 64 | 120 | 0.0 | 0.0 | 0.00 | 0.00 | 0.00 | 40 | 1012.2 |
| 20260507133735 | 63 | 137 | 0.0 | 1.7 | 0.00 | 0.00 | 0.00 | 41 | 1012.2 |
| 20260507133236 | 62 | 52 | 0.9 | 2.6 | 0.00 | 0.00 | 0.00 | 41 | 1012.2 |
| 20260507132735 | 62 | 64 | 0.9 | 2.6 | 0.00 | 0.00 | 0.00 | 43 | 1012.2 |
| 20260507132236 | 61 | 358 | 0.9 | 3.5 | 0.00 | 0.00 | 0.00 | 44 | 1012.2 |
| 20260507131735 | 60 | 333 | 0.0 | 0.0 | 0.00 | 0.00 | 0.00 | 46 | 1012.2 |
| 20260507131237 | 60 | 66 | 0.0 | 0.9 | 0.00 | 0.00 | 0.00 | 45 | 1012.2 |
| 20260507130735 | 60 | 215 | 0.9 | 3.5 | 0.00 | 0.00 | 0.00 | 45 | 1012.2 |
| 20260507130237 | 60 | 34 | 0.0 | 2.6 | 0.00 | 0.00 | 0.00 | 45 | 1011.9 |
| 20260507125734 | 60 | 354 | 0.0 | 0.0 | 0.00 | 0.00 | 0.00 | 44 | 1011.9 |
| 20260507125235 | 61 | 82 | 0.0 | 0.0 | 0.00 | 0.00 | 0.00 | 44 | 1011.9 |
| 20260507124734 | 61 | 207 | 0.0 | 0.0 | 0.00 | 0.00 | 0.00 | 44 | 1011.9 |
| 20260507124234 | 61 | 279 | 0.0 | 1.7 | 0.00 | 0.00 | 0.00 | 44 | 1011.9 |
| 20260507123734 | 61 | 137 | 0.9 | 3.5 | 0.00 | 0.00 | 0.00 | 44 | 1011.9 |
| 20260507123235 | 61 | 170 | 0.0 | 1.7 | 0.00 | 0.00 | 0.00 | 44 | 1011.9 |
| 20260507122734 | 61 | 337 | 0.0 | 3.5 | 0.00 | 0.00 | 0.00 | 44 | 1011.9 |
| 20260507122235 | 62 | 327 | 0.0 | 0.0 | 0.00 | 0.00 | 0.00 | 42 | 1011.9 |
| 20260507121736 | 62 | 308 | 0.0 | 0.9 | 0.00 | 0.00 | 0.00 | 42 | 1011.5 |
| 20260507121235 | 62 | 27 | 0.0 | 1.7 | 0.00 | 0.00 | 0.00 | 41 | 1011.5 |
| 20260507120735 | 62 | 135 | 0.9 | 2.6 | 0.00 | 0.00 | 0.00 | 41 | 1011.9 |
| 20260507120236 | 62 | 326 | 0.0 | 2.6 | 0.00 | 0.00 | 0.00 | 42 | 1011.5 |
| 20260507115734 | 62 | 97 | 0.0 | 1.7 | 0.00 | 0.00 | 0.00 | 41 | 1011.9 |
| 20260507115235 | 62 | 358 | 0.0 | 0.9 | 0.00 | 0.00 | 0.00 | 41 | 1011.5 |
| 20260507114735 | 62 | 72 | 0.0 | 0.0 | 0.00 | 0.00 | 0.00 | 41 | 1011.5 |
| 20260507114234 | 63 | 8 | 0.0 | 0.0 | 0.00 | 0.00 | 0.00 | 41 | 1011.5 |
| 20260507113734 | 63 | 90 | 0.0 | 0.0 | 0.00 | 0.00 | 0.00 | 39 | 1011.5 |
| 20260507113234 | 63 | 35 | 0.0 | 0.0 | 0.00 | 0.00 | 0.00 | 39 | 1011.9 |
| 20260507112734 | 64 | 128 | 0.0 | 1.7 | 0.00 | 0.00 | 0.00 | 38 | 1011.9 |
| 20260507112234 | 65 | 63 | 0.0 | 0.0 | 0.00 | 0.00 | 0.00 | 37 | 1011.9 |
| 20260507111735 | 65 | 88 | 0.0 | 0.9 | 0.00 | 0.00 | 0.00 | 36 | 1011.5 |
| 20260507111234 | 65 | 334 | 0.0 | 0.9 | 0.00 | 0.00 | 0.00 | 35 | 1011.5 |
| 20260507110736 | 65 | 308 | 1.7 | 3.5 | 0.00 | 0.00 | 0.00 | 35 | 1011.5 |
| 20260507110234 | 65 | 304 | 0.9 | 3.5 | 0.00 | 0.00 | 0.00 | 35 | 1011.5 |
| 20260507105736 | 66 | 15 | 1.7 | 3.5 | 0.00 | 0.00 | 0.00 | 35 | 1011.5 |
| 20260507105234 | 66 | 326 | 1.7 | 5.2 | 0.00 | 0.00 | 0.00 | 35 | 1011.5 |
| 20260507104734 | 66 | 271 | 0.9 | 2.6 | 0.00 | 0.00 | 0.00 | 34 | 1011.5 |
| 20260507104235 | 66 | 77 | 0.9 | 3.5 | 0.00 | 0.00 | 0.00 | 34 | 1011.5 |
| 20260507103735 | 66 | 300 | 0.0 | 3.5 | 0.00 | 0.00 | 0.00 | 35 | 1011.9 |
| 20260507103235 | 66 | 284 | 1.7 | 4.3 | 0.00 | 0.00 | 0.00 | 34 | 1011.9 |
| 20260507102736 | 66 | 331 | 3.5 | 5.2 | 0.00 | 0.00 | 0.00 | 34 | 1011.9 |
| 20260507102235 | 66 | 319 | 3.5 | 5.2 | 0.00 | 0.00 | 0.00 | 34 | 1011.9 |
| 20260507101735 | 66 | 354 | 3.5 | 5.2 | 0.00 | 0.00 | 0.00 | 34 | 1011.9 |
| 20260507101235 | 66 | 339 | 3.5 | 6.1 | 0.00 | 0.00 | 0.00 | 34 | 1011.9 |
| 20260507100735 | 66 | 329 | 3.5 | 5.2 | 0.00 | 0.00 | 0.00 | 34 | 1011.9 |
| 20260507100234 | 66 | 345 | 3.5 | 5.2 | 0.00 | 0.00 | 0.00 | 34 | 1012.2 |
| 20260507095735 | 66 | 341 | 4.3 | 7.0 | 0.00 | 0.00 | 0.00 | 33 | 1012.2 |
| 20260507095234 | 66 | 352 | 4.3 | 6.1 | 0.00 | 0.00 | 0.00 | 33 | 1012.2 |
| 20260507094734 | 66 | 337 | 3.5 | 6.1 | 0.00 | 0.00 | 0.00 | 34 | 1012.2 |
| 20260507094235 | 66 | 315 | 3.5 | 6.1 | 0.00 | 0.00 | 0.00 | 34 | 1012.2 |
| 20260507093734 | 66 | 311 | 3.5 | 6.1 | 0.00 | 0.00 | 0.00 | 33 | 1012.2 |
| 20260507093234 | 66 | 329 | 3.5 | 5.2 | 0.00 | 0.00 | 0.00 | 34 | 1012.5 |
| 20260507092734 | 66 | 313 | 2.6 | 4.3 | 0.00 | 0.00 | 0.00 | 34 | 1012.5 |
| 20260507092235 | 65 | 1 | 0.9 | 3.5 | 0.00 | 0.00 | 0.00 | 35 | 1012.5 |
| 20260507091735 | 65 | 6 | 0.9 | 2.6 | 0.00 | 0.00 | 0.00 | 35 | 1012.5 |
| 20260507091234 | 65 | 356 | 0.9 | 2.6 | 0.00 | 0.00 | 0.00 | 35 | 1012.5 |
| 20260507090734 | 65 | 317 | 0.9 | 2.6 | 0.00 | 0.00 | 0.00 | 35 | 1012.5 |
| 20260507090235 | 65 | 317 | 0.9 | 2.6 | 0.00 | 0.00 | 0.00 | 34 | 1012.5 |
| 20260507085734 | 66 | 310 | 0.9 | 3.5 | 0.00 | 0.00 | 0.00 | 34 | 1012.5 |
| 20260507085235 | 66 | 323 | 0.9 | 2.6 | 0.00 | 0.00 | 0.00 | 34 | 1012.5 |
| 20260507084736 | 67 | 1 | 0.0 | 1.7 | 0.00 | 0.00 | 0.00 | 33 | 1012.9 |
| 20260507084235 | 67 | 305 | 0.9 | 2.6 | 0.00 | 0.00 | 0.00 | 33 | 1012.5 |
| 20260507083734 | 67 | 337 | 1.7 | 2.6 | 0.00 | 0.00 | 0.00 | 33 | 1012.9 |
| 20260507083234 | 66 | 332 | 0.9 | 2.6 | 0.00 | 0.00 | 0.00 | 34 | 1012.9 |
| 20260507082736 | 64 | 51 | 0.0 | 1.7 | 0.00 | 0.00 | 0.00 | 37 | 1012.9 |
| 20260507082234 | 62 | 321 | 0.0 | 1.7 | 0.00 | 0.00 | 0.00 | 41 | 1012.9 |
| 20260507081735 | 62 | 59 | 0.0 | 0.0 | 0.00 | 0.00 | 0.00 | 43 | 1012.9 |
| 20260507081234 | 62 | 50 | 0.0 | 0.0 | 0.00 | 0.00 | 0.00 | 42 | 1012.9 |
| 20260507080735 | 63 | 60 | 0.0 | 0.0 | 0.00 | 0.00 | 0.00 | 40 | 1012.9 |
| 20260507080235 | 63 | 133 | 0.0 | 0.0 | 0.00 | 0.00 | 0.00 | 40 | 1012.9 |
| 20260507075734 | 64 | 117 | 0.0 | 0.0 | 0.00 | 0.00 | 0.00 | 41 | 1012.9 |
| 20260507075234 | 64 | 185 | 0.0 | 0.0 | 0.00 | 0.00 | 0.00 | 37 | 1012.9 |
| 20260507074736 | 65 | 76 | 0.0 | 0.0 | 0.00 | 0.00 | 0.00 | 39 | 1013.2 |
| 20260507074234 | 65 | 96 | 0.0 | 0.0 | 0.00 | 0.00 | 0.00 | 40 | 1012.9 |
| 20260507073735 | 66 | 67 | 0.0 | 0.0 | 0.00 | 0.00 | 0.00 | 38 | 1012.9 |
| 20260507073234 | 66 | 52 | 0.0 | 0.0 | 0.00 | 0.00 | 0.00 | 35 | 1012.9 |
| 20260507072735 | 66 | 36 | 0.0 | 0.0 | 0.00 | 0.00 | 0.00 | 35 | 1012.9 |
| 20260507072235 | 67 | 319 | 0.0 | 0.0 | 0.00 | 0.00 | 0.00 | 34 | 1012.9 |
| 20260507071734 | 67 | 20 | 0.0 | 0.0 | 0.00 | 0.00 | 0.00 | 34 | 1012.9 |
| 20260507071234 | 67 | 33 | 0.0 | 0.0 | 0.00 | 0.00 | 0.00 | 34 | 1012.9 |
| 20260507070736 | 67 | 32 | 0.0 | 0.0 | 0.00 | 0.00 | 0.00 | 34 | 1012.9 |
| 20260507070234 | 67 | 40 | 0.0 | 1.7 | 0.00 | 0.00 | 0.00 | 34 | 1012.9 |
| 20260507065735 | 67 | 47 | 0.0 | 0.0 | 0.00 | 0.00 | 0.00 | 35 | 1013.2 |
| 20260507065234 | 67 | 67 | 0.0 | 0.0 | 0.00 | 0.00 | 0.00 | 36 | 1012.9 |
| 20260507064735 | 67 | 68 | 0.0 | 0.0 | 0.00 | 0.00 | 0.00 | 36 | 1012.9 |
| 20260507064235 | 67 | 43 | 0.0 | 0.9 | 0.00 | 0.00 | 0.00 | 37 | 1012.9 |
| 20260507063734 | 67 | 40 | 0.0 | 0.9 | 0.00 | 0.00 | 0.00 | 36 | 1012.9 |
| 20260507063234 | 67 | 55 | 0.0 | 0.0 | 0.00 | 0.00 | 0.00 | 37 | 1012.9 |
| 20260507062734 | 67 | 87 | 0.0 | 0.0 | 0.00 | 0.00 | 0.00 | 35 | 1012.9 |
| 20260507062234 | 68 | 83 | 0.0 | 0.0 | 0.00 | 0.00 | 0.00 | 34 | 1012.9 |
| 20260507061735 | 68 | 33 | 0.0 | 0.0 | 0.00 | 0.00 | 0.00 | 34 | 1012.9 |
| 20260507061236 | 68 | 58 | 0.0 | 1.7 | 0.00 | 0.00 | 0.00 | 34 | 1012.9 |
| 20260507060734 | 67 | 18 | 0.0 | 1.7 | 0.00 | 0.00 | 0.00 | 35 | 1012.9 |
| 20260507060234 | 66 | 3 | 0.9 | 2.6 | 0.00 | 0.00 | 0.00 | 36 | 1012.9 |
| 20260507055734 | 66 | 2 | 0.0 | 1.7 | 0.00 | 0.00 | 0.00 | 38 | 1012.9 |
| 20260507054734 | 66 | 39 | 0.0 | 0.9 | 0.00 | 0.00 | 0.00 | 39 | 1012.9 |
| 20260507054234 | 67 | 17 | 0.0 | 0.0 | 0.00 | 0.00 | 0.00 | 40 | 1013.2 |
| 20260507053735 | 67 | 43 | 0.0 | 0.0 | 0.00 | 0.00 | 0.00 | 40 | 1012.9 |
| 20260507053234 | 68 | 63 | 0.0 | 0.0 | 0.00 | 0.00 | 0.00 | 38 | 1012.9 |
| 20260507052734 | 68 | 81 | 0.0 | 0.0 | 0.00 | 0.00 | 0.00 | 37 | 1012.9 |
| 20260507052234 | 68 | 54 | 0.0 | 0.9 | 0.00 | 0.00 | 0.00 | 36 | 1012.9 |
| 20260507051734 | 68 | 40 | 0.9 | 2.6 | 0.00 | 0.00 | 0.00 | 37 | 1012.9 |
| 20260507051234 | 68 | 42 | 0.9 | 2.6 | 0.00 | 0.00 | 0.00 | 37 | 1012.9 |
| 20260507050734 | 67 | 33 | 0.0 | 1.7 | 0.00 | 0.00 | 0.00 | 39 | 1012.9 |
| 20260507050235 | 67 | 43 | 0.0 | 0.9 | 0.00 | 0.00 | 0.00 | 41 | 1012.9 |
| 20260507045734 | 67 | 66 | 0.0 | 0.9 | 0.00 | 0.00 | 0.00 | 42 | 1012.9 |
| 20260507045234 | 67 | 329 | 0.0 | 0.0 | 0.00 | 0.00 | 0.00 | 43 | 1012.9 |
| 20260507044735 | 67 | 51 | 0.0 | 0.0 | 0.00 | 0.00 | 0.00 | 45 | 1012.9 |
| 20260507044235 | 67 | 39 | 0.0 | 0.0 | 0.00 | 0.00 | 0.00 | 45 | 1012.9 |
| 20260507043734 | 68 | 51 | 0.0 | 0.0 | 0.00 | 0.00 | 0.00 | 44 | 1012.9 |
| 20260507042235 | 69 | 70 | 0.0 | 0.0 | 0.00 | 0.00 | 0.00 | 40 | 1012.5 |
| 20260507041734 | 69 | 57 | 0.0 | 0.0 | 0.00 | 0.00 | 0.00 | 40 | 1012.5 |
| 20260507041236 | 69 | 85 | 0.0 | 0.0 | 0.00 | 0.00 | 0.00 | 39 | 1012.5 |
| 20260507040735 | 69 | 29 | 0.0 | 0.0 | 0.00 | 0.00 | 0.00 | 38 | 1012.5 |
| 20260507040237 | 70 | 36 | 0.0 | 0.0 | 0.00 | 0.00 | 0.00 | 37 | 1012.5 |
| 20260507035734 | 70 | 44 | 0.0 | 0.0 | 0.00 | 0.00 | 0.00 | 38 | 1012.2 |
| 20260507035234 | 70 | 46 | 0.0 | 0.0 | 0.00 | 0.00 | 0.00 | 37 | 1012.2 |
| 20260507034734 | 70 | 43 | 0.0 | 0.0 | 0.00 | 0.00 | 0.00 | 37 | 1012.2 |
| 20260507034235 | 71 | 30 | 0.0 | 0.0 | 0.00 | 0.00 | 0.00 | 37 | 1012.2 |
| 20260507033734 | 71 | 25 | 0.0 | 0.0 | 0.00 | 0.00 | 0.00 | 36 | 1012.2 |
| 20260507033234 | 71 | 43 | 0.0 | 0.0 | 0.00 | 0.00 | 0.00 | 34 | 1011.9 |
| 20260507032734 | 71 | 32 | 0.0 | 0.0 | 0.00 | 0.00 | 0.00 | 36 | 1011.9 |
| 20260507032234 | 71 | 53 | 0.0 | 0.0 | 0.00 | 0.00 | 0.00 | 35 | 1011.9 |
| 20260507031734 | 72 | 23 | 0.0 | 0.0 | 0.00 | 0.00 | 0.00 | 34 | 1011.9 |
| 20260507031235 | 72 | 34 | 0.0 | 0.0 | 0.00 | 0.00 | 0.00 | 33 | 1011.5 |
| 20260507030734 | 72 | 50 | 0.0 | 0.0 | 0.00 | 0.00 | 0.00 | 33 | 1011.5 |
| 20260507030235 | 73 | 16 | 0.0 | 0.0 | 0.00 | 0.00 | 0.00 | 33 | 1011.5 |
| 20260507025734 | 73 | 55 | 0.0 | 0.0 | 0.00 | 0.00 | 0.00 | 31 | 1011.5 |
| 20260507025234 | 74 | 21 | 0.0 | 0.0 | 0.00 | 0.00 | 0.00 | 31 | 1011.5 |
| 20260507024734 | 75 | 60 | 0.0 | 0.0 | 0.00 | 0.00 | 0.00 | 28 | 1011.2 |
| 20260507024234 | 75 | 69 | 0.0 | 0.0 | 0.00 | 0.00 | 0.00 | 27 | 1011.2 |
| 20260507023735 | 76 | 101 | 0.0 | 0.0 | 0.00 | 0.00 | 0.00 | 27 | 1011.2 |
| 20260507023234 | 76 | 290 | 0.0 | 0.0 | 0.00 | 0.00 | 0.00 | 26 | 1011.2 |
| 20260507022734 | 77 | 177 | 0.0 | 0.0 | 0.00 | 0.00 | 0.00 | 25 | 1011.2 |
| 20260507022236 | 77 | 267 | 0.0 | 2.6 | 0.00 | 0.00 | 0.00 | 25 | 1011.2 |
| 20260507021735 | 77 | 68 | 0.9 | 2.6 | 0.00 | 0.00 | 0.00 | 24 | 1010.8 |
| 20260507021235 | 78 | 226 | 0.9 | 3.5 | 0.00 | 0.00 | 0.00 | 24 | 1011.2 |
| 20260507020735 | 78 | 156 | 0.0 | 2.6 | 0.00 | 0.00 | 0.00 | 24 | 1011.2 |
| 20260507020234 | 79 | 206 | 0.9 | 3.5 | 0.00 | 0.00 | 0.00 | 23 | 1010.8 |
| 20260507015735 | 79 | 202 | 1.7 | 3.5 | 0.00 | 0.00 | 0.00 | 23 | 1010.8 |
| 20260507015234 | 80 | 205 | 0.9 | 2.6 | 0.00 | 0.00 | 0.00 | 22 | 1010.8 |
| 20260507014735 | 80 | 217 | 0.9 | 3.5 | 0.00 | 0.00 | 0.00 | 22 | 1010.8 |
| 20260507014234 | 80 | 282 | 2.6 | 6.1 | 0.00 | 0.00 | 0.00 | 22 | 1010.8 |
| 20260507013736 | 81 | 244 | 2.6 | 6.1 | 0.00 | 0.00 | 0.00 | 21 | 1010.8 |
| 20260507013234 | 81 | 251 | 1.7 | 3.5 | 0.00 | 0.00 | 0.00 | 22 | 1010.8 |
| 20260507012734 | 81 | 196 | 1.7 | 5.2 | 0.00 | 0.00 | 0.00 | 21 | 1010.8 |
| 20260507012234 | 82 | 229 | 2.6 | 5.2 | 0.00 | 0.00 | 0.00 | 21 | 1010.8 |
| 20260507011734 | 82 | 226 | 1.7 | 7.8 | 0.00 | 0.00 | 0.00 | 21 | 1010.8 |
| 20260507011235 | 82 | 277 | 1.7 | 5.2 | 0.00 | 0.00 | 0.00 | 22 | 1010.8 |
| 20260507010735 | 82 | 265 | 2.6 | 5.2 | 0.00 | 0.00 | 0.00 | 21 | 1010.8 |
| 20260507010235 | 82 | 232 | 3.5 | 6.1 | 0.00 | 0.00 | 0.00 | 21 | 1010.8 |
| 20260507005734 | 82 | 283 | 2.6 | 6.1 | 0.00 | 0.00 | 0.00 | 21 | 1010.8 |
| 20260507005234 | 83 | 244 | 2.6 | 7.0 | 0.00 | 0.00 | 0.00 | 21 | 1010.8 |
| 20260507004735 | 83 | 214 | 3.5 | 6.1 | 0.00 | 0.00 | 0.00 | 20 | 1010.8 |
| 20260507004234 | 83 | 178 | 3.5 | 6.1 | 0.00 | 0.00 | 0.00 | 21 | 1010.8 |
| 20260507003735 | 83 | 254 | 3.5 | 7.0 | 0.00 | 0.00 | 0.00 | 20 | 1010.8 |
| 20260507003234 | 84 | 296 | 2.6 | 7.0 | 0.00 | 0.00 | 0.00 | 20 | 1010.8 |
| 20260507002734 | 83 | 183 | 1.7 | 5.2 | 0.00 | 0.00 | 0.00 | 21 | 1010.8 |
| 20260507002235 | 83 | 259 | 1.7 | 5.2 | 0.00 | 0.00 | 0.00 | 20 | 1010.8 |
| 20260507001734 | 83 | 244 | 3.5 | 6.1 | 0.00 | 0.00 | 0.00 | 20 | 1010.8 |
| 20260507001234 | 84 | 281 | 3.5 | 7.8 | 0.00 | 0.00 | 0.00 | 20 | 1010.8 |
| 20260507000734 | 84 | 275 | 0.9 | 6.1 | 0.00 | 0.00 | 0.00 | 20 | 1010.8 |
| 20260507000234 | 84 | 224 | 1.7 | 6.1 | 0.00 | 0.00 | 0.00 | 20 | 1010.8 |
| 20260506235734 | 84 | 255 | 2.6 | 5.2 | 0.00 | 0.00 | 0.00 | 20 | 1010.8 |
| 20260506235235 | 84 | 300 | 3.5 | 8.7 | 0.00 | 0.00 | 0.00 | 20 | 1010.8 |
| 20260506234736 | 84 | 212 | 1.7 | 3.5 | 0.00 | 0.00 | 0.00 | 20 | 1010.8 |
| 20260506234234 | 83 | 330 | 3.5 | 7.8 | 0.00 | 0.00 | 0.00 | 21 | 1010.8 |
| 20260506233734 | 84 | 229 | 2.6 | 6.1 | 0.00 | 0.00 | 0.00 | 20 | 1010.8 |
| 20260506233238 | 83 | 191 | 0.9 | 4.3 | 0.00 | 0.00 | 0.00 | 20 | 1010.8 |
| 20260506232735 | 83 | 164 | 3.5 | 7.0 | 0.00 | 0.00 | 0.00 | 20 | 1010.8 |
| 20260506232235 | 83 | 229 | 4.3 | 7.0 | 0.00 | 0.00 | 0.00 | 21 | 1011.2 |
| 20260506231734 | 83 | 230 | 4.3 | 9.6 | 0.00 | 0.00 | 0.00 | 20 | 1010.8 |
| 20260506231234 | 83 | 237 | 4.3 | 9.6 | 0.00 | 0.00 | 0.00 | 21 | 1011.2 |
| 20260506230734 | 84 | 221 | 5.2 | 7.0 | 0.00 | 0.00 | 0.00 | 20 | 1011.2 |
| 20260506230234 | 84 | 262 | 1.7 | 4.3 | 0.00 | 0.00 | 0.00 | 20 | 1011.2 |
| 20260506225734 | 84 | 190 | 1.7 | 5.2 | 0.00 | 0.00 | 0.00 | 20 | 1011.2 |
| 20260506225235 | 83 | 218 | 5.2 | 8.7 | 0.00 | 0.00 | 0.00 | 20 | 1011.2 |
| 20260506224735 | 84 | 172 | 4.3 | 10.4 | 0.00 | 0.00 | 0.00 | 20 | 1011.2 |
| 20260506224234 | 84 | 303 | 4.3 | 7.8 | 0.00 | 0.00 | 0.00 | 20 | 1011.5 |
| 20260506223734 | 84 | 213 | 4.3 | 9.6 | 0.00 | 0.00 | 0.00 | 20 | 1011.5 |
| 20260506223234 | 85 | 262 | 3.5 | 7.8 | 0.00 | 0.00 | 0.00 | 20 | 1011.5 |
| 20260506222734 | 85 | 276 | 2.6 | 6.1 | 0.00 | 0.00 | 0.00 | 19 | 1011.5 |
| 20260506222234 | 84 | 213 | 1.7 | 5.2 | 0.00 | 0.00 | 0.00 | 20 | 1011.5 |
| 20260506221737 | 83 | 222 | 3.5 | 6.1 | 0.00 | 0.00 | 0.00 | 21 | 1011.9 |
| 20260506221235 | 83 | 322 | 1.7 | 5.2 | 0.00 | 0.00 | 0.00 | 20 | 1011.9 |
| 20260506220735 | 84 | 144 | 2.6 | 6.1 | 0.00 | 0.00 | 0.00 | 20 | 1011.9 |
| 20260506220234 | 83 | 281 | 2.6 | 6.1 | 0.00 | 0.00 | 0.00 | 20 | 1011.9 |
| 20260506215734 | 83 | 285 | 4.3 | 7.0 | 0.00 | 0.00 | 0.00 | 20 | 1011.9 |
| 20260506215234 | 84 | 322 | 3.5 | 7.0 | 0.00 | 0.00 | 0.00 | 20 | 1011.9 |
| 20260506214734 | 84 | 205 | 2.6 | 6.1 | 0.00 | 0.00 | 0.00 | 21 | 1012.2 |
| 20260506214234 | 83 | 117 | 1.7 | 2.6 | 0.00 | 0.00 | 0.00 | 21 | 1012.2 |
| 20260506213735 | 83 | 117 | 2.6 | 6.1 | 0.00 | 0.00 | 0.00 | 21 | 1012.2 |
| 20260506213234 | 82 | 268 | 2.6 | 6.1 | 0.00 | 0.00 | 0.00 | 22 | 1012.5 |
| 20260506212735 | 83 | 276 | 2.6 | 5.2 | 0.00 | 0.00 | 0.00 | 21 | 1012.5 |
| 20260506212235 | 82 | 271 | 2.6 | 7.0 | 0.00 | 0.00 | 0.00 | 21 | 1012.5 |
| 20260506211734 | 82 | 201 | 4.3 | 7.0 | 0.00 | 0.00 | 0.00 | 22 | 1012.5 |
| 20260506211234 | 82 | 358 | 5.2 | 9.6 | 0.00 | 0.00 | 0.00 | 22 | 1012.5 |
| 20260506210734 | 82 | 273 | 4.3 | 7.0 | 0.00 | 0.00 | 0.00 | 22 | 1012.5 |
| 20260506210234 | 83 | 352 | 1.7 | 5.2 | 0.00 | 0.00 | 0.00 | 21 | 1012.9 |
| 20260506205736 | 83 | 78 | 1.7 | 5.2 | 0.00 | 0.00 | 0.00 | 21 | 1012.9 |
| 20260506205235 | 82 | 278 | 2.6 | 6.1 | 0.00 | 0.00 | 0.00 | 22 | 1012.9 |
| 20260506204734 | 81 | 278 | 3.5 | 6.1 | 0.00 | 0.00 | 0.00 | 22 | 1013.2 |
| 20260506204235 | 80 | 274 | 3.5 | 7.0 | 0.00 | 0.00 | 0.00 | 23 | 1013.2 |
| 20260506203734 | 81 | 258 | 5.2 | 8.7 | 0.00 | 0.00 | 0.00 | 23 | 1013.2 |
| 20260506203234 | 81 | 245 | 3.5 | 7.0 | 0.00 | 0.00 | 0.00 | 22 | 1013.2 |
| 20260506202735 | 80 | 213 | 2.6 | 6.1 | 0.00 | 0.00 | 0.00 | 23 | 1013.2 |
| 20260506202234 | 80 | 45 | 3.5 | 7.0 | 0.00 | 0.00 | 0.00 | 23 | 1013.2 |
| 20260506201735 | 80 | 345 | 5.2 | 7.8 | 0.00 | 0.00 | 0.00 | 23 | 1013.2 |
| 20260506201235 | 81 | 279 | 4.3 | 7.8 | 0.00 | 0.00 | 0.00 | 23 | 1013.2 |
| 20260506200735 | 81 | 123 | 4.3 | 8.7 | 0.00 | 0.00 | 0.00 | 23 | 1013.5 |
| 20260506200235 | 81 | 197 | 1.7 | 5.2 | 0.00 | 0.00 | 0.00 | 24 | 1013.5 |
| 20260506195734 | 79 | 303 | 2.6 | 7.0 | 0.00 | 0.00 | 0.00 | 24 | 1013.5 |
| 20260506195236 | 79 | 255 | 3.5 | 7.8 | 0.00 | 0.00 | 0.00 | 24 | 1013.5 |
| 20260506194734 | 79 | 320 | 4.3 | 7.0 | 0.00 | 0.00 | 0.00 | 24 | 1013.5 |
| 20260506194235 | 79 | 336 | 3.5 | 7.8 | 0.00 | 0.00 | 0.00 | 24 | 1013.5 |
| 20260506193734 | 80 | 289 | 2.6 | 6.1 | 0.00 | 0.00 | 0.00 | 25 | 1013.5 |
| 20260506193236 | 79 | 216 | 4.3 | 8.7 | 0.00 | 0.00 | 0.00 | 25 | 1013.9 |
| 20260506192735 | 79 | 242 | 2.6 | 7.0 | 0.00 | 0.00 | 0.00 | 25 | 1013.9 |
| 20260506192236 | 79 | 235 | 3.5 | 9.6 | 0.00 | 0.00 | 0.00 | 25 | 1013.9 |
| 20260506191737 | 79 | 284 | 2.6 | 8.7 | 0.00 | 0.00 | 0.00 | 26 | 1013.9 |
| 20260506191235 | 79 | 268 | 4.3 | 8.7 | 0.00 | 0.00 | 0.00 | 25 | 1013.9 |
| 20260506190736 | 79 | 289 | 0.9 | 5.2 | 0.00 | 0.00 | 0.00 | 25 | 1013.9 |
| 20260506190234 | 78 | 245 | 2.6 | 6.1 | 0.00 | 0.00 | 0.00 | 26 | 1014.2 |
| 20260506185735 | 78 | 270 | 3.5 | 7.8 | 0.00 | 0.00 | 0.00 | 27 | 1014.2 |
| 20260506185235 | 78 | 297 | 4.3 | 7.8 | 0.00 | 0.00 | 0.00 | 26 | 1014.2 |
| 20260506184734 | 78 | 351 | 2.6 | 7.0 | 0.00 | 0.00 | 0.00 | 27 | 1014.2 |
| 20260506184235 | 77 | 356 | 2.6 | 8.7 | 0.00 | 0.00 | 0.00 | 27 | 1014.2 |
| 20260506183734 | 77 | 307 | 5.2 | 9.6 | 0.00 | 0.00 | 0.00 | 26 | 1014.2 |
| 20260506183235 | 79 | 281 | 0.9 | 3.5 | 0.00 | 0.00 | 0.00 | 25 | 1014.2 |
| 20260506182738 | 77 | 207 | 1.7 | 6.1 | 0.00 | 0.00 | 0.00 | 27 | 1014.6 |
| 20260506182234 | 76 | 203 | 2.6 | 7.0 | 0.00 | 0.00 | 0.00 | 26 | 1014.6 |
| 20260506181736 | 76 | 313 | 3.5 | 6.1 | 0.00 | 0.00 | 0.00 | 27 | 1014.6 |
| 20260506181235 | 76 | 216 | 4.3 | 9.6 | 0.00 | 0.00 | 0.00 | 27 | 1014.6 |
| 20260506180734 | 76 | 206 | 2.6 | 7.0 | 0.00 | 0.00 | 0.00 | 27 | 1014.6 |
| 20260506180234 | 76 | 294 | 3.5 | 8.7 | 0.00 | 0.00 | 0.00 | 28 | 1014.6 |
| 20260506175734 | 76 | 57 | 2.6 | 5.2 | 0.00 | 0.00 | 0.00 | 28 | 1014.6 |
| 20260506175234 | 76 | 234 | 2.6 | 7.0 | 0.00 | 0.00 | 0.00 | 29 | 1014.9 |
| 20260506174734 | 75 | 219 | 3.5 | 7.8 | 0.00 | 0.00 | 0.00 | 29 | 1014.9 |
| 20260506174235 | 76 | 162 | 3.5 | 7.8 | 0.00 | 0.00 | 0.00 | 29 | 1014.9 |
| 20260506173234 | 76 | 232 | 2.6 | 7.0 | 0.00 | 0.00 | 0.00 | 28 | 1014.6 |
| 20260506172734 | 76 | 198 | 1.7 | 4.3 | 0.00 | 0.00 | 0.00 | 29 | 1014.6 |
| 20260506172235 | 76 | 171 | 0.9 | 5.2 | 0.00 | 0.00 | 0.00 | 29 | 1014.9 |
| 20260506171735 | 75 | 101 | 1.7 | 6.1 | 0.00 | 0.00 | 0.00 | 29 | 1014.6 |
| 20260506171234 | 75 | 298 | 1.7 | 6.1 | 0.00 | 0.00 | 0.00 | 29 | 1014.6 |
| 20260506170734 | 75 | 196 | 0.9 | 3.5 | 0.00 | 0.00 | 0.00 | 29 | 1014.9 |
| 20260506170234 | 75 | 231 | 1.7 | 4.3 | 0.00 | 0.00 | 0.00 | 30 | 1014.9 |
| 20260506165735 | 75 | 230 | 0.9 | 3.5 | 0.00 | 0.00 | 0.00 | 30 | 1014.6 |
| 20260506165234 | 74 | 221 | 2.6 | 4.3 | 0.00 | 0.00 | 0.00 | 31 | 1014.6 |
| 20260506164735 | 74 | 226 | 2.6 | 6.1 | 0.00 | 0.00 | 0.00 | 30 | 1014.6 |
| 20260506164235 | 75 | 203 | 0.0 | 3.5 | 0.00 | 0.00 | 0.00 | 31 | 1014.6 |
| 20260506163734 | 74 | 164 | 0.9 | 3.5 | 0.00 | 0.00 | 0.00 | 31 | 1014.6 |
| 20260506163234 | 74 | 147 | 0.9 | 3.5 | 0.00 | 0.00 | 0.00 | 32 | 1014.6 |
| 20260506162735 | 73 | 219 | 2.6 | 5.2 | 0.00 | 0.00 | 0.00 | 32 | 1014.6 |
| 20260506162235 | 73 | 184 | 0.9 | 3.5 | 0.00 | 0.00 | 0.00 | 32 | 1014.6 |